Time,TemperatureF,DewpointF,PressureIn,WindDirection,WindDirectionDegrees,WindSpeedMPH,WindSpeedGustMPH,Humidity,HourlyPrecipIn,Conditions,Clouds,dailyrainin,SoftwareType,DateUTC
2013-02-23 00:03:00,67.0,65.0,30.00,SSW,200,0.0,0.0,94,0.00,,,0.00,,2013-02-23 05:03:00,
2013-02-23 00:12:00,67.0,65.0,30.00,SSW,200,0.0,0.0,94,0.00,,,0.00,,2013-02-23 05:12:00,
2013-02-23 00:22:00,68.0,67.0,30.00,SSW,200,0.0,0.0,95,0.00,,,0.00,,2013-02-23 05:22:00,
2013-02-23 00:33:00,68.0,67.0,29.99,South,181,1.0,2.0,95,0.00,,,0.00,,2013-02-23 05:33:00,
2013-02-23 00:42:00,68.0,67.0,29.99,South,181,1.0,2.0,95,0.00,,,0.00,,2013-02-23 05:42:00,
2013-02-23 00:52:00,68.0,67.0,29.99,South,181,0.0,1.0,95,0.00,,,0.00,,2013-02-23 05:52:00,
2013-02-23 01:01:00,68.0,67.0,29.99,South,180,0.0,1.0,95,0.00,,,0.00,,2013-02-23 06:01:00,
2013-02-23 01:11:00,68.0,67.0,29.99,South,180,0.0,1.0,95,0.00,,,0.00,,2013-02-23 06:11:00,
2013-02-23 01:22:00,68.0,67.0,29.98,South,181,0.0,0.0,95,0.00,,,0.00,,2013-02-23 06:22:00,
2013-02-23 01:32:00,67.0,66.0,29.98,South,180,0.0,0.0,95,0.00,,,0.00,,2013-02-23 06:32:00,
2013-02-23 01:42:00,67.0,66.0,29.98,South,180,0.0,0.0,95,0.00,,,0.00,,2013-02-23 06:42:00,
2013-02-23 01:52:00,67.0,66.0,29.98,South,181,0.0,1.0,95,0.00,,,0.00,,2013-02-23 06:52:00,
2013-02-23 02:01:00,67.0,66.0,29.98,South,181,0.0,0.0,95,0.00,,,0.00,,2013-02-23 07:01:00,
2013-02-23 02:11:00,67.0,66.0,29.98,South,181,0.0,0.0,95,0.00,,,0.00,,2013-02-23 07:11:00,
2013-02-23 02:21:00,67.0,66.0,29.97,South,180,0.0,0.0,95,0.00,,,0.00,,2013-02-23 07:21:00,
2013-02-23 02:32:00,67.0,66.0,29.97,South,181,0.0,0.0,95,0.00,,,0.00,,2013-02-23 07:32:00,
2013-02-23 02:42:00,67.0,66.0,29.97,South,181,0.0,0.0,95,0.00,,,0.00,,2013-02-23 07:42:00,
2013-02-23 02:52:00,67.0,66.0,29.96,South,178,0.0,3.0,96,0.00,,,0.00,,2013-02-23 07:52:00,
2013-02-23 03:01:00,67.0,66.0,29.96,South,178,0.0,2.0,96,0.00,,,0.00,,2013-02-23 08:01:00,
2013-02-23 03:11:00,67.0,66.0,29.96,South,178,0.0,2.0,96,0.00,,,0.00,,2013-02-23 08:11:00,
2013-02-23 03:21:00,67.0,66.0,29.96,South,175,0.0,2.0,96,0.00,,,0.00,,2013-02-23 08:21:00,
2013-02-23 03:32:00,67.0,66.0,29.96,South,175,1.0,2.0,96,0.00,,,0.00,,2013-02-23 08:32:00,
2013-02-23 03:42:00,67.0,66.0,29.96,South,175,1.0,2.0,96,0.00,,,0.00,,2013-02-23 08:42:00,
2013-02-23 03:53:00,68.0,67.0,29.96,South,172,1.0,4.0,96,0.00,,,0.00,,2013-02-23 08:53:00,
2013-02-23 04:02:00,68.0,67.0,29.96,SSE,157,1.0,3.0,96,0.00,,,0.00,,2013-02-23 09:02:00,
2013-02-23 04:11:00,68.0,67.0,29.96,SSE,157,1.0,3.0,96,0.00,,,0.00,,2013-02-23 09:11:00,
2013-02-23 04:22:00,68.0,67.0,29.95,South,171,3.0,6.0,96,0.00,,,0.00,,2013-02-23 09:22:00,
2013-02-23 04:32:00,68.0,67.0,29.95,SSE,168,1.0,5.0,96,0.00,,,0.00,,2013-02-23 09:32:00,
2013-02-23 04:42:00,68.0,67.0,29.95,SSE,168,1.0,5.0,96,0.00,,,0.00,,2013-02-23 09:42:00,
2013-02-23 04:52:00,68.0,67.0,29.95,SSE,160,3.0,6.0,96,0.00,,,0.00,,2013-02-23 09:52:00,
2013-02-23 05:01:00,69.0,68.0,29.94,SSE,165,2.0,6.0,96,0.00,,,0.00,,2013-02-23 10:01:00,
2013-02-23 05:11:00,69.0,68.0,29.94,South,169,4.0,5.0,96,0.00,,,0.00,,2013-02-23 10:11:00,
2013-02-23 05:21:00,69.0,68.0,29.94,South,169,4.0,5.0,96,0.00,,,0.00,,2013-02-23 10:21:00,
2013-02-23 05:32:00,70.0,68.0,29.94,SSE,157,4.0,6.0,95,0.00,,,0.00,,2013-02-23 10:32:00,
2013-02-23 05:42:00,70.0,68.0,29.94,SSE,157,4.0,6.0,95,0.00,,,0.00,,2013-02-23 10:42:00,
2013-02-23 05:52:00,70.0,68.0,29.94,SSE,164,3.0,6.0,95,0.00,,,0.00,,2013-02-23 10:52:00,
2013-02-23 06:02:00,70.0,68.0,29.94,SE,145,4.0,5.0,95,0.00,,,0.00,,2013-02-23 11:02:00,
2013-02-23 06:11:00,70.0,68.0,29.94,SE,145,4.0,5.0,95,0.00,,,0.00,,2013-02-23 11:11:00,
2013-02-23 06:22:00,70.0,68.0,29.94,South,175,3.0,5.0,95,0.00,,,0.00,,2013-02-23 11:22:00,
2013-02-23 06:32:00,70.0,68.0,29.95,SSE,147,2.0,6.0,95,0.00,,,0.00,,2013-02-23 11:32:00,
2013-02-23 06:42:00,70.0,68.0,29.95,SSE,147,2.0,6.0,95,0.00,,,0.00,,2013-02-23 11:42:00,
2013-02-23 06:52:00,70.0,68.0,29.95,SSE,161,0.0,5.0,95,0.00,,,0.00,,2013-02-23 11:52:00,
2013-02-23 07:02:00,70.0,68.0,29.95,SSE,154,0.0,4.0,95,0.00,,,0.00,,2013-02-23 12:02:00,
2013-02-23 07:11:00,70.0,68.0,29.95,SSE,154,0.0,4.0,95,0.00,,,0.00,,2013-02-23 12:11:00,
2013-02-23 07:21:00,69.0,68.0,29.96,SSE,157,1.0,3.0,95,0.00,,,0.00,,2013-02-23 12:21:00,
2013-02-23 07:32:00,69.0,68.0,29.96,SE,144,1.0,4.0,95,0.00,,,0.00,,2013-02-23 12:32:00,
2013-02-23 07:42:00,69.0,68.0,29.96,SE,144,1.0,4.0,95,0.00,,,0.00,,2013-02-23 12:42:00,
2013-02-23 07:52:00,70.0,68.0,29.96,South,182,0.0,3.0,95,0.00,,,0.00,,2013-02-23 12:52:00,
2013-02-23 08:01:00,70.0,68.0,29.96,SE,137,0.0,3.0,95,0.00,,,0.00,,2013-02-23 13:01:00,
2013-02-23 08:11:00,71.0,69.0,29.97,SSE,163,1.0,3.0,94,0.00,,,0.00,,2013-02-23 13:11:00,
2013-02-23 08:22:00,71.0,69.0,29.97,SSE,163,1.0,3.0,94,0.00,,,0.00,,2013-02-23 13:22:00,
2013-02-23 08:32:00,71.0,69.0,29.97,SSE,164,0.0,4.0,94,0.00,,,0.00,,2013-02-23 13:32:00,
2013-02-23 08:42:00,72.0,70.0,29.98,South,185,1.0,6.0,93,0.00,,,0.00,,2013-02-23 13:42:00,
2013-02-23 08:52:00,72.0,70.0,29.98,South,185,1.0,6.0,93,0.00,,,0.00,,2013-02-23 13:52:00,
2013-02-23 09:02:00,72.0,70.0,29.98,SSW,200,2.0,5.0,93,0.00,,,0.00,,2013-02-23 14:02:00,
2013-02-23 09:11:00,72.0,70.0,29.98,SSW,200,2.0,5.0,93,0.00,,,0.00,,2013-02-23 14:11:00,
2013-02-23 09:21:00,73.0,71.0,29.98,South,181,0.0,4.0,92,0.00,,,0.00,,2013-02-23 14:21:00,
2013-02-23 09:32:00,72.0,70.0,29.98,South,187,2.0,5.0,93,0.00,,,0.00,,2013-02-23 14:32:00,
2013-02-23 09:42:00,72.0,70.0,29.98,South,187,2.0,5.0,93,0.00,,,0.00,,2013-02-23 14:42:00,
2013-02-23 09:52:00,73.0,71.0,29.98,SSW,194,3.0,5.0,93,0.00,,,0.00,,2013-02-23 14:52:00,
2013-02-23 10:02:00,72.0,70.0,29.99,SSE,154,0.0,5.0,93,0.00,,,0.00,,2013-02-23 15:02:00,
2013-02-23 10:11:00,72.0,70.0,29.99,SSE,154,0.0,5.0,93,0.00,,,0.00,,2013-02-23 15:11:00,
2013-02-23 10:22:00,73.0,71.0,29.98,South,186,2.0,6.0,94,0.00,,,0.00,,2013-02-23 15:22:00,
2013-02-23 10:32:00,74.0,71.0,29.98,South,186,4.0,6.0,90,0.00,,,0.00,,2013-02-23 15:32:00,
2013-02-23 10:42:00,74.0,71.0,29.98,South,186,4.0,6.0,90,0.00,,,0.00,,2013-02-23 15:42:00,
2013-02-23 10:52:00,74.0,71.0,29.98,South,186,4.0,6.0,90,0.00,,,0.00,,2013-02-23 15:52:00,
2013-02-23 11:01:00,76.0,72.0,29.98,South,173,2.0,7.0,87,0.00,,,0.00,,2013-02-23 16:01:00,
2013-02-23 11:11:00,76.0,72.0,29.98,South,173,2.0,7.0,87,0.00,,,0.00,,2013-02-23 16:11:00,
2013-02-23 11:22:00,77.0,72.0,29.98,South,184,4.0,10.0,85,0.00,,,0.00,,2013-02-23 16:22:00,
2013-02-23 11:32:00,78.0,72.0,29.98,SSW,193,2.0,9.0,83,0.00,,,0.00,,2013-02-23 16:32:00,
2013-02-23 11:42:00,78.0,72.0,29.98,SSW,193,2.0,9.0,83,0.00,,,0.00,,2013-02-23 16:42:00,
2013-02-23 11:52:00,78.0,72.0,29.98,SSW,198,3.0,7.0,82,0.00,,,0.00,,2013-02-23 16:52:00,
2013-02-23 12:01:00,80.0,73.0,29.98,SSW,202,6.0,10.0,80,0.00,,,0.00,,2013-02-23 17:01:00,
2013-02-23 12:11:00,80.0,73.0,29.97,SSW,200,0.0,9.0,79,0.00,,,0.00,,2013-02-23 17:11:00,
2013-02-23 12:21:00,80.0,73.0,29.97,SSW,200,0.0,9.0,79,0.00,,,0.00,,2013-02-23 17:21:00,
2013-02-23 12:32:00,80.0,73.0,29.97,SSE,167,4.0,7.0,80,0.00,,,0.00,,2013-02-23 17:32:00,
2013-02-23 12:42:00,80.0,73.0,29.97,SSE,167,4.0,7.0,80,0.00,,,0.00,,2013-02-23 17:42:00,
2013-02-23 12:52:00,79.0,72.0,29.96,SW,232,4.0,11.0,80,0.00,,,0.00,,2013-02-23 17:52:00,
2013-02-23 13:02:00,78.0,72.0,29.96,SSW,203,4.0,8.0,81,0.00,,,0.00,,2013-02-23 18:02:00,
2013-02-23 13:12:00,78.0,72.0,29.96,SSW,203,4.0,8.0,81,0.00,,,0.00,,2013-02-23 18:12:00,
2013-02-23 13:22:00,80.0,73.0,29.95,WSW,249,5.0,7.0,79,0.00,,,0.00,,2013-02-23 18:22:00,
2013-02-23 13:32:00,80.0,73.0,29.94,ESE,123,3.0,7.0,79,0.00,,,0.00,,2013-02-23 18:32:00,
2013-02-23 13:42:00,80.0,73.0,29.94,ESE,123,3.0,7.0,79,0.00,,,0.00,,2013-02-23 18:42:00,
2013-02-23 13:52:00,80.0,73.0,29.94,South,173,5.0,7.0,79,0.00,,,0.00,,2013-02-23 18:52:00,
2013-02-23 14:01:00,80.0,73.0,29.93,South,169,3.0,11.0,79,0.00,,,0.00,,2013-02-23 19:01:00,
2013-02-23 14:11:00,79.0,73.0,29.93,SSE,163,3.0,8.0,81,0.00,,,0.00,,2013-02-23 19:11:00,
2013-02-23 14:21:00,79.0,73.0,29.93,SSE,163,3.0,8.0,81,0.00,,,0.00,,2013-02-23 19:21:00,
2013-02-23 14:32:00,79.0,73.0,29.92,SSW,192,2.0,8.0,81,0.00,,,0.00,,2013-02-23 19:32:00,
2013-02-23 14:41:00,79.0,73.0,29.92,SSW,192,2.0,8.0,81,0.00,,,0.00,,2013-02-23 19:41:00,
2013-02-23 14:52:00,80.0,72.0,29.92,SSW,207,2.0,6.0,78,0.00,,,0.00,,2013-02-23 19:52:00,
2013-02-23 15:01:00,79.0,72.0,29.91,South,184,5.0,7.0,80,0.00,,,0.00,,2013-02-23 20:01:00,
2013-02-23 15:11:00,79.0,72.0,29.91,South,184,5.0,7.0,80,0.00,,,0.00,,2013-02-23 20:11:00,
2013-02-23 15:21:00,79.0,72.0,29.91,WSW,244,3.0,9.0,80,0.00,,,0.00,,2013-02-23 20:21:00,
2013-02-23 15:32:00,78.0,72.0,29.91,South,182,1.0,9.0,82,0.00,,,0.00,,2013-02-23 20:32:00,
2013-02-23 15:42:00,78.0,72.0,29.91,South,182,1.0,9.0,82,0.00,,,0.00,,2013-02-23 20:42:00,
2013-02-23 15:53:00,78.0,72.0,29.90,SSW,205,2.0,6.0,82,0.00,,,0.00,,2013-02-23 20:53:00,
2013-02-23 16:01:00,77.0,72.0,29.90,SSE,164,2.0,7.0,84,0.00,,,0.00,,2013-02-23 21:01:00,
2013-02-23 16:11:00,77.0,72.0,29.90,South,171,1.0,11.0,85,0.00,,,0.00,,2013-02-23 21:11:00,
2013-02-23 16:22:00,77.0,72.0,29.90,South,171,1.0,11.0,85,0.00,,,0.00,,2013-02-23 21:22:00,
2013-02-23 16:32:00,78.0,72.0,29.90,South,186,1.0,6.0,83,0.00,,,0.00,,2013-02-23 21:32:00,
2013-02-23 16:42:00,78.0,72.0,29.90,South,186,1.0,6.0,83,0.00,,,0.00,,2013-02-23 21:42:00,
2013-02-23 16:52:00,78.0,72.0,29.89,SW,215,2.0,5.0,82,0.00,,,0.00,,2013-02-23 21:52:00,
2013-02-23 17:01:00,77.0,72.0,29.90,SW,230,2.0,4.0,84,0.00,,,0.00,,2013-02-23 22:01:00,
2013-02-23 17:11:00,76.0,72.0,29.90,SSW,213,0.0,3.0,86,0.00,,,0.00,,2013-02-23 22:11:00,
2013-02-23 17:22:00,76.0,72.0,29.90,SSW,213,0.0,3.0,86,0.00,,,0.00,,2013-02-23 22:22:00,
2013-02-23 17:32:00,75.0,71.0,29.90,SSW,206,2.0,5.0,87,0.00,,,0.00,,2013-02-23 22:32:00,
2013-02-23 17:42:00,75.0,71.0,29.90,SSW,206,2.0,5.0,87,0.00,,,0.00,,2013-02-23 22:42:00,
2013-02-23 17:52:00,75.0,71.0,29.90,South,191,0.0,4.0,88,0.00,,,0.00,,2013-02-23 22:52:00,
2013-02-23 18:01:00,75.0,71.0,29.90,SSW,213,0.0,3.0,88,0.00,,,0.00,,2013-02-23 23:01:00,
2013-02-23 18:11:00,74.0,71.0,29.91,SE,131,2.0,5.0,89,0.00,,,0.00,,2013-02-23 23:11:00,
2013-02-23 18:21:00,74.0,71.0,29.91,SE,131,2.0,5.0,89,0.00,,,0.00,,2013-02-23 23:21:00,
2013-02-23 18:32:00,74.0,71.0,29.91,SE,131,2.0,5.0,89,0.00,,,0.00,,2013-02-23 23:32:00,
2013-02-23 18:42:00,74.0,71.0,29.91,SE,131,2.0,5.0,89,0.00,,,0.00,,2013-02-23 23:42:00,
2013-02-23 18:52:00,72.0,69.0,29.92,SSW,207,0.0,3.0,91,0.00,,,0.00,,2013-02-23 23:52:00,
2013-02-23 19:01:00,72.0,70.0,29.92,SW,214,0.0,3.0,92,0.00,,,0.00,,2013-02-24 00:01:00,
2013-02-23 19:11:00,72.0,70.0,29.92,SW,214,0.0,3.0,92,0.00,,,0.00,,2013-02-24 00:11:00,
2013-02-23 19:22:00,72.0,70.0,29.92,SW,214,0.0,2.0,92,0.00,,,0.00,,2013-02-24 00:22:00,
2013-02-23 19:32:00,71.0,69.0,29.92,SSW,198,0.0,2.0,93,0.00,,,0.00,,2013-02-24 00:32:00,
2013-02-23 19:42:00,71.0,69.0,29.92,SSW,198,0.0,2.0,93,0.00,,,0.00,,2013-02-24 00:42:00,
2013-02-23 19:52:00,71.0,67.0,29.93,South,191,0.0,3.0,88,0.00,,,0.00,,2013-02-24 00:52:00,
2013-02-23 20:01:00,71.0,68.0,29.92,SSW,193,0.0,3.0,89,0.00,,,0.00,,2013-02-24 01:01:00,
2013-02-23 20:11:00,71.0,68.0,29.92,SSW,193,0.0,3.0,89,0.00,,,0.00,,2013-02-24 01:11:00,
2013-02-23 20:22:00,71.0,68.0,29.92,SSE,162,2.0,4.0,89,0.00,,,0.00,,2013-02-24 01:22:00,
2013-02-23 20:31:00,70.0,67.0,29.92,South,182,0.0,3.0,89,0.00,,,0.00,,2013-02-24 01:31:00,
2013-02-23 20:42:00,70.0,67.0,29.92,South,182,0.0,3.0,89,0.00,,,0.00,,2013-02-24 01:42:00,
2013-02-23 20:52:00,70.0,67.0,29.92,SSE,165,1.0,4.0,89,0.00,,,0.00,,2013-02-24 01:52:00,
2013-02-23 21:01:00,70.0,67.0,29.92,South,178,1.0,4.0,90,0.00,,,0.00,,2013-02-24 02:01:00,
2013-02-23 21:11:00,70.0,67.0,29.92,South,178,1.0,4.0,90,0.00,,,0.00,,2013-02-24 02:11:00,
2013-02-23 21:22:00,70.0,67.0,29.92,SSE,165,1.0,4.0,90,0.00,,,0.00,,2013-02-24 02:22:00,
2013-02-23 21:32:00,70.0,67.0,29.92,South,184,2.0,4.0,90,0.00,,,0.00,,2013-02-24 02:32:00,
2013-02-23 21:42:00,70.0,67.0,29.92,South,184,2.0,4.0,90,0.00,,,0.00,,2013-02-24 02:42:00,
2013-02-23 21:52:00,70.0,67.0,29.93,SSE,149,0.0,3.0,90,0.00,,,0.00,,2013-02-24 02:52:00,
2013-02-23 22:02:00,70.0,67.0,29.93,South,176,1.0,3.0,90,0.00,,,0.00,,2013-02-24 03:02:00,
2013-02-23 22:11:00,70.0,67.0,29.94,SSE,153,0.0,3.0,90,0.00,,,0.00,,2013-02-24 03:11:00,
2013-02-23 22:22:00,70.0,67.0,29.94,SSE,153,0.0,3.0,90,0.00,,,0.00,,2013-02-24 03:22:00,
2013-02-23 22:32:00,70.0,67.0,29.94,SSE,163,0.0,3.0,90,0.00,,,0.00,,2013-02-24 03:32:00,
2013-02-23 22:42:00,70.0,67.0,29.94,SSE,163,0.0,3.0,90,0.00,,,0.00,,2013-02-24 03:42:00,
2013-02-23 22:52:00,69.0,66.0,29.93,South,172,0.0,1.0,91,0.00,,,0.00,,2013-02-24 03:52:00,
2013-02-23 23:02:00,69.0,66.0,29.94,South,178,0.0,3.0,91,0.00,,,0.00,,2013-02-24 04:02:00,
2013-02-23 23:11:00,69.0,66.0,29.94,South,178,0.0,3.0,91,0.00,,,0.00,,2013-02-24 04:11:00,
2013-02-23 23:21:00,69.0,66.0,29.95,South,179,0.0,1.0,91,0.00,,,0.00,,2013-02-24 04:21:00,
2013-02-23 23:32:00,69.0,66.0,29.93,South,179,0.0,1.0,91,0.00,,,0.00,,2013-02-24 04:32:00,
2013-02-23 23:42:00,69.0,66.0,29.93,South,179,0.0,1.0,91,0.00,,,0.00,,2013-02-24 04:42:00,
2013-02-23 23:52:00,69.0,66.0,29.93,South,178,0.0,1.0,91,0.00,,,0.00,,2013-02-24 04:52:00,